sat.trackr.live / text

‹ back to catalog

CONTECSAT-1

NORAD 59117 · 2024-043V

PAYLOAD ACTIVE UNKNOWN

§ Identity

Operator
Country
SKOR
Launch date
2024-03-04
Launch site
AFWTR
Launch vehicle
Mass (kg)
RCS (m²)

External: N2YO · Heavens-Above · Gunter

§ Orbital elements

Epoch: 2026-09-22T20:57:02.306304Z

Period
93.75 min
Inclination
97.5788°
Eccentricity
0.0005007
Mean motion
15.36012063 rev/d
Perigee alt
454.5 km
Apogee alt
461.3 km
Semi-major
6,836.1 km
B*
1.0997e-6
RAAN
49.7893°
Arg perigee
206.1301°
Mean anomaly
153.9691°
Rev number
14,225

§ Raw data

CONTECSAT-11 59117U 24043V   26265.87294336 -.00000045  00000+0  10997-5 0  99992 59117  97.5788  49.7893 0005007 206.1301 153.9691 15.36012063142259

JSON: /api/v1/satellites/59117 · /tle

For live sub-satellite position, see the globe view (requires WebGL).

§ Visibility from observer

Set your observer location to see the next 7 days of passes ≥ 10°. The values pass through the URL so the page stays shareable.

No JS? Fill the form by hand. The geolocation button needs JavaScript.

§ Radio — SatNOGS DB

ModeDescriptionDownlinkUplink
FM Mode S - Downlink 1 2.220 GHz
FM Mode S - Downlink 2 2.245 GHz
GFSK Mode U - Downlink 401.050 MHz
FM Mode X - Downlink (67.5 MHz) 8.110 GHz

4 transmitters · refreshed weekly from db.satnogs.org